Time,TemperatureF,DewpointF,PressureIn,WindDirection,WindDirectionDegrees,WindSpeedMPH,WindSpeedGustMPH,Humidity,HourlyPrecipIn,Conditions,Clouds,dailyrainin,SoftwareType,DateUTC
2013-02-26 00:00:00,35.2,32.9,30.14,WNW,293,1.0,4.0,91,0.00,,,-99.99,meteohub,2013-02-25 23:00:00,
2013-02-26 00:15:00,35.1,32.7,30.13,NE,45,3.0,5.0,91,0.00,,,0.00,meteohub,2013-02-25 23:15:00,
2013-02-26 00:30:00,34.2,32.0,30.13,ENE,68,1.0,3.0,92,0.00,,,0.00,meteohub,2013-02-25 23:30:00,
2013-02-26 00:46:00,34.3,32.4,30.13,NE,45,1.0,2.0,92,0.00,,,0.00,meteohub,2013-02-25 23:46:00,
2013-02-26 01:01:00,35.1,32.7,30.13,NE,45,2.0,5.0,91,0.00,,,0.00,meteohub,2013-02-26 00:01:00,
2013-02-26 01:17:00,35.2,32.9,30.13,NE,45,5.0,8.0,91,0.00,,,0.00,meteohub,2013-02-26 00:17:00,
2013-02-26 01:32:00,35.1,32.9,30.14,NE,45,3.0,7.0,92,0.00,,,0.00,meteohub,2013-02-26 00:32:00,
2013-02-26 01:48:00,34.9,32.7,30.14,NE,45,3.0,6.0,92,0.00,,,0.00,meteohub,2013-02-26 00:48:00,
2013-02-26 02:03:00,34.9,32.9,30.14,NNE,23,3.0,7.0,92,0.00,,,0.00,meteohub,2013-02-26 01:03:00,
2013-02-26 02:19:00,34.5,32.7,30.13,NE,45,2.0,6.0,93,0.00,,,0.00,meteohub,2013-02-26 01:19:00,
2013-02-26 02:34:00,34.5,32.7,30.13,ENE,68,2.0,5.0,93,0.00,,,0.00,meteohub,2013-02-26 01:34:00,
2013-02-26 02:49:00,34.9,33.1,30.13,ENE,68,4.0,8.0,93,0.00,,,0.00,meteohub,2013-02-26 01:49:00,
2013-02-26 03:04:00,34.9,33.1,30.13,ENE,68,3.0,7.0,93,0.00,,,0.00,meteohub,2013-02-26 02:04:00,
2013-02-26 03:21:00,34.5,32.7,30.13,ENE,68,3.0,5.0,93,0.00,,,0.00,meteohub,2013-02-26 02:21:00,
2013-02-26 03:36:00,35.1,33.3,30.13,ENE,68,3.0,4.0,93,0.00,,,0.00,meteohub,2013-02-26 02:36:00,
2013-02-26 03:52:00,34.9,33.1,30.13,ENE,68,2.0,3.0,93,0.00,,,0.00,meteohub,2013-02-26 02:52:00,
2013-02-26 04:07:00,34.7,32.9,30.12,ENE,68,2.0,6.0,93,0.00,,,0.00,meteohub,2013-02-26 03:07:00,
2013-02-26 04:23:00,34.7,32.9,30.12,NE,45,2.0,4.0,93,0.00,,,0.00,meteohub,2013-02-26 03:23:00,
2013-02-26 04:38:00,35.1,33.3,30.12,ENE,68,2.0,5.0,93,0.00,,,0.00,meteohub,2013-02-26 03:38:00,
2013-02-26 04:54:00,35.1,33.3,30.11,ENE,68,2.0,4.0,93,0.00,,,0.00,meteohub,2013-02-26 03:54:00,
2013-02-26 05:09:00,35.1,33.3,30.11,ENE,68,1.0,3.0,93,0.00,,,0.00,meteohub,2013-02-26 04:09:00,
2013-02-26 05:25:00,35.1,33.3,30.11,ENE,68,1.0,3.0,93,0.00,,,0.00,meteohub,2013-02-26 04:25:00,
2013-02-26 05:40:00,35.1,33.1,30.11,ENE,68,2.0,4.0,92,0.00,,,0.00,meteohub,2013-02-26 04:40:00,
2013-02-26 05:55:00,35.1,32.9,30.11,ENE,68,3.0,5.0,92,0.00,,,0.00,meteohub,2013-02-26 04:55:00,
2013-02-26 06:10:00,35.2,33.1,30.11,ENE,68,3.0,6.0,92,0.00,,,0.00,meteohub,2013-02-26 05:10:00,
2013-02-26 06:26:00,35.2,33.1,30.11,NNE,23,3.0,7.0,91,0.00,,,0.00,meteohub,2013-02-26 05:26:00,
2013-02-26 06:42:00,34.7,32.5,30.10,ENE,68,2.0,4.0,92,0.00,,,0.00,meteohub,2013-02-26 05:42:00,
2013-02-26 06:57:00,34.3,32.2,30.11,NE,45,1.0,2.0,92,0.00,,,0.00,meteohub,2013-02-26 05:57:00,
2013-02-26 07:12:00,34.2,32.2,30.11,East,90,0.0,2.0,92,0.00,,,0.00,meteohub,2013-02-26 06:12:00,
2013-02-26 07:28:00,34.2,32.4,30.11,ENE,68,0.0,1.0,93,0.00,,,0.00,meteohub,2013-02-26 06:28:00,
2013-02-26 07:43:00,34.3,32.5,30.11,ENE,68,1.0,3.0,93,0.00,,,0.00,meteohub,2013-02-26 06:43:00,
2013-02-26 07:58:00,34.5,32.7,30.12,ENE,68,1.0,4.0,93,0.00,,,0.00,meteohub,2013-02-26 06:58:00,
2013-02-26 08:13:00,36.0,33.6,30.13,NE,45,1.0,4.0,91,0.00,,,0.00,meteohub,2013-02-26 07:13:00,
2013-02-26 08:28:00,37.2,34.3,30.13,NE,45,3.0,7.0,89,0.00,,,0.00,meteohub,2013-02-26 07:28:00,
2013-02-26 08:43:00,37.2,34.0,30.14,ENE,68,2.0,5.0,88,0.00,,,0.00,meteohub,2013-02-26 07:43:00,
2013-02-26 08:59:00,37.6,34.3,30.14,ENE,68,2.0,5.0,88,0.00,,,0.00,meteohub,2013-02-26 07:59:00,
2013-02-26 09:15:00,38.3,34.7,30.14,ENE,68,2.0,5.0,86,0.00,,,0.00,meteohub,2013-02-26 08:15:00,
2013-02-26 09:30:00,40.8,35.2,30.14,ENE,68,4.0,9.0,80,0.00,,,0.00,meteohub,2013-02-26 08:30:00,
2013-02-26 09:46:00,41.5,35.4,30.15,ENE,68,4.0,8.0,78,0.00,,,0.00,meteohub,2013-02-26 08:46:00,
2013-02-26 10:01:00,42.8,34.7,30.15,ENE,68,5.0,9.0,73,0.00,,,0.00,meteohub,2013-02-26 09:01:00,
2013-02-26 10:16:00,43.3,34.9,30.15,ENE,68,4.0,8.0,72,0.00,,,0.00,meteohub,2013-02-26 09:16:00,
2013-02-26 10:32:00,43.3,34.5,30.15,ENE,68,4.0,9.0,71,0.00,,,0.00,meteohub,2013-02-26 09:32:00,
2013-02-26 10:47:00,43.9,35.2,30.15,ENE,68,4.0,7.0,71,0.00,,,0.00,meteohub,2013-02-26 09:47:00,
2013-02-26 11:02:00,44.8,35.4,30.16,ENE,68,5.0,10.0,69,0.00,,,0.00,meteohub,2013-02-26 10:02:00,
2013-02-26 11:17:00,44.8,35.4,30.16,East,90,6.0,12.0,69,0.00,,,0.00,meteohub,2013-02-26 10:17:00,
2013-02-26 11:33:00,45.3,35.6,30.16,East,90,5.0,13.0,68,0.00,,,0.00,meteohub,2013-02-26 10:33:00,
2013-02-26 11:48:00,45.7,35.4,30.16,ENE,68,4.0,9.0,67,0.00,,,0.00,meteohub,2013-02-26 10:48:00,
2013-02-26 12:03:00,47.1,36.0,30.16,ESE,113,6.0,15.0,64,0.00,,,0.00,meteohub,2013-02-26 11:03:00,
2013-02-26 12:19:00,46.8,36.0,30.16,ENE,68,8.0,15.0,65,0.00,,,0.00,meteohub,2013-02-26 11:19:00,
2013-02-26 12:34:00,45.3,36.5,30.16,East,90,7.0,13.0,70,0.00,,,0.00,meteohub,2013-02-26 11:34:00,
2013-02-26 12:49:00,44.6,37.0,30.16,ESE,113,6.0,15.0,74,0.00,,,0.00,meteohub,2013-02-26 11:49:00,
2013-02-26 13:04:00,45.1,37.2,30.16,ESE,113,6.0,14.0,73,0.00,,,0.00,meteohub,2013-02-26 12:04:00,
2013-02-26 13:20:00,46.0,35.2,30.16,ENE,68,6.0,10.0,65,0.00,,,0.00,meteohub,2013-02-26 12:20:00,
2013-02-26 13:35:00,45.5,34.7,30.15,East,90,4.0,6.0,65,0.00,,,0.00,meteohub,2013-02-26 12:35:00,
2013-02-26 13:50:00,45.7,33.8,30.15,East,90,6.0,12.0,63,0.00,,,0.00,meteohub,2013-02-26 12:50:00,
2013-02-26 14:05:00,46.2,33.4,30.15,East,90,4.0,10.0,61,0.00,,,0.00,meteohub,2013-02-26 13:05:00,
2013-02-26 14:21:00,45.9,35.2,30.14,NE,45,5.0,10.0,66,0.00,,,0.00,meteohub,2013-02-26 13:21:00,
2013-02-26 14:36:00,45.3,35.1,30.15,ENE,68,5.0,9.0,67,0.00,,,0.00,meteohub,2013-02-26 13:36:00,
2013-02-26 14:51:00,45.9,34.7,30.14,ENE,68,5.0,9.0,65,0.00,,,0.00,meteohub,2013-02-26 13:51:00,
2013-02-26 15:07:00,46.6,35.6,30.14,East,90,7.0,11.0,65,0.00,,,0.00,meteohub,2013-02-26 14:07:00,
2013-02-26 15:22:00,45.0,36.0,30.14,East,90,7.0,11.0,70,0.00,,,0.00,meteohub,2013-02-26 14:22:00,
2013-02-26 15:37:00,44.8,36.0,30.14,ENE,68,7.0,11.0,71,0.00,,,0.00,meteohub,2013-02-26 14:37:00,
2013-02-26 15:52:00,44.6,34.3,30.15,East,90,8.0,13.0,67,0.00,,,0.00,meteohub,2013-02-26 14:52:00,
2013-02-26 16:08:00,44.8,34.3,30.14,East,90,8.0,13.0,66,0.00,,,0.00,meteohub,2013-02-26 15:08:00,
2013-02-26 16:23:00,45.5,34.9,30.14,East,90,7.0,13.0,66,0.00,,,0.00,meteohub,2013-02-26 15:23:00,
2013-02-26 16:39:00,45.3,35.1,30.14,ENE,68,6.0,11.0,66,0.00,,,0.00,meteohub,2013-02-26 15:39:00,
2013-02-26 16:54:00,45.9,34.9,30.14,ENE,68,6.0,13.0,65,0.00,,,0.00,meteohub,2013-02-26 15:54:00,
2013-02-26 17:10:00,45.1,34.5,30.15,ENE,68,6.0,13.0,65,0.00,,,0.00,meteohub,2013-02-26 16:10:00,
2013-02-26 17:25:00,44.8,34.2,30.15,ENE,68,8.0,15.0,65,0.00,,,0.00,meteohub,2013-02-26 16:25:00,
2013-02-26 17:41:00,43.9,33.6,30.16,ENE,68,6.0,10.0,67,0.00,,,0.00,meteohub,2013-02-26 16:41:00,
2013-02-26 17:56:00,43.9,33.8,30.16,East,90,5.0,8.0,67,0.00,,,0.00,meteohub,2013-02-26 16:56:00,
2013-02-26 18:12:00,43.3,33.4,30.17,East,90,7.0,11.0,68,0.00,,,0.00,meteohub,2013-02-26 17:12:00,
2013-02-26 18:27:00,43.2,33.6,30.17,ENE,68,7.0,10.0,69,0.00,,,0.00,meteohub,2013-02-26 17:27:00,
2013-02-26 18:42:00,42.4,33.4,30.18,ENE,68,4.0,9.0,70,0.00,,,0.00,meteohub,2013-02-26 17:42:00,
2013-02-26 18:57:00,42.1,33.6,30.18,NE,45,4.0,5.0,71,0.00,,,0.00,meteohub,2013-02-26 17:57:00,
2013-02-26 19:13:00,41.2,33.4,30.19,NE,45,4.0,7.0,73,0.00,,,0.00,meteohub,2013-02-26 18:13:00,
2013-02-26 19:28:00,40.6,33.3,30.19,NE,45,3.0,4.0,74,0.00,,,0.00,meteohub,2013-02-26 18:28:00,
2013-02-26 19:44:00,40.5,33.4,30.20,NE,45,1.0,4.0,76,0.00,,,0.00,meteohub,2013-02-26 18:44:00,
2013-02-26 19:59:00,40.3,33.6,30.20,NE,45,1.0,3.0,77,0.00,,,0.00,meteohub,2013-02-26 18:59:00,
2013-02-26 20:14:00,39.9,33.3,30.20,NNE,23,1.0,3.0,77,0.00,,,0.00,meteohub,2013-02-26 19:14:00,
2013-02-26 20:29:00,39.6,32.9,30.20,NE,45,1.0,3.0,77,0.00,,,0.00,meteohub,2013-02-26 19:29:00,
2013-02-26 20:45:00,38.7,32.7,30.21,NE,45,2.0,2.0,79,0.00,,,0.00,meteohub,2013-02-26 19:45:00,
2013-02-26 21:01:00,38.5,32.2,30.22,NE,45,0.0,2.0,78,0.00,,,0.00,meteohub,2013-02-26 20:01:00,
2013-02-26 21:16:00,38.5,32.2,30.22,NE,45,0.0,1.0,78,0.00,,,0.00,meteohub,2013-02-26 20:16:00,
2013-02-26 21:32:00,37.9,31.6,30.22,NE,45,0.0,1.0,78,0.00,,,0.00,meteohub,2013-02-26 20:32:00,
2013-02-26 21:47:00,37.9,31.6,30.22,NE,45,0.0,1.0,78,0.00,,,0.00,meteohub,2013-02-26 20:47:00,
2013-02-26 22:03:00,37.4,31.3,30.22,NE,45,0.0,1.0,78,0.00,,,0.00,meteohub,2013-02-26 21:03:00,
2013-02-26 22:18:00,36.7,30.7,30.22,NE,45,0.0,0.0,79,0.00,,,0.00,meteohub,2013-02-26 21:18:00,
2013-02-26 22:33:00,36.5,30.6,30.22,NE,45,0.0,1.0,79,0.00,,,0.00,meteohub,2013-02-26 21:33:00,
2013-02-26 22:49:00,36.3,30.6,30.22,NE,45,0.0,0.0,79,0.00,,,0.00,meteohub,2013-02-26 21:49:00,
2013-02-26 23:05:00,36.0,30.7,30.22,NE,45,0.0,0.0,81,0.00,,,0.00,meteohub,2013-02-26 22:05:00,
2013-02-26 23:20:00,36.1,30.9,30.22,NE,45,0.0,0.0,81,0.00,,,0.00,meteohub,2013-02-26 22:20:00,
2013-02-26 23:36:00,36.1,30.9,30.22,NE,45,0.0,0.0,81,0.00,,,0.00,meteohub,2013-02-26 22:36:00,
2013-02-26 23:51:00,36.5,30.9,30.22,NE,45,0.0,1.0,80,0.00,,,0.00,meteohub,2013-02-26 22:51:00,